Location: Lombard
(41.8800°N, 88.0080°W)
Time: 07:13:38
(UTC-05:00)

A-11 Canister half - Pass Details

Date: 28 April 2025
Orbit: 1514 x 1685 km, 47.2° (Epoch: 13 May)

Event Time Altitude Azimuth Distance (km) Brightness Sun altitude
Exits shadow 03:12:16 - 157° (SSE) 4,219 11.0 -24.9°
Reaches altitude 10° 03:16:48 10° 132° (SE) 3,670 10.9 -24.4°
Maximum altitude 03:18:28 11° 121° (ESE) 3,623 11.0 -24.2°
Drops below altitude 10° 03:20:08 10° 111° (ESE) 3,669 11.2 -24.0°
Sets 03:26:51 0° 76° (ENE) 4,664 12.4 -23.2°
